Location: Buch
(49.7331°N, 12.1098°E)
Time: 14:02:46
(UTC+00:00)

Okean 2 Rocket - Pass Details

Date: 12 May 2021
Orbit: 617 x 641 km, 82.5° (Epoch: 18 June)

Event Time Altitude Azimuth Distance (km) Brightness Sun altitude
Rises 23:36:57 0° 348° (NNW) 2,905 7.8 -21.6°
Reaches altitude 10° 23:39:11 10° 348° (NNW) 1,993 6.7 -21.5°
Maximum altitude 23:43:36 79° 262° (W) 636 3.0 -21.4°
Enters shadow 23:44:15 63° 195° (SSW) 694 2.9 -21.4°
